This is the latest recevied weather packets stored in our database for station/object OE6PLD-13. If no packets are shown the sender has not sent any weather packets the latest 10 day(s).
| Time | Temp. | Humidity | Pressure | Rain* | Wind** | Luminosity | Snow |
|---|---|---|---|---|---|---|---|
| 1777900815 | 27.78° C | 33% | 1012.3 hPa | 0.76 mm | - | 398 W/m² | - |
| 1777900632 | 27.22° C | 31% | 1012.4 hPa | 0.76 mm | - | 458 W/m² | - |
| 1777900448 | 27.22° C | 32% | 1012.5 hPa | 0.76 mm | - | 435 W/m² | - |
| 1777900265 | 27.78° C | 32% | 1012.5 hPa | 0.76 mm | - | 481 W/m² | - |
| 1777900082 | 27.78° C | 32% | 1012.7 hPa | 0.76 mm | - | 500 W/m² | - |
| 1777899898 | 27.22° C | 33% | 1012.5 hPa | 0.76 mm | - | 528 W/m² | - |
| 1777899715 | 27.22° C | 34% | 1012.4 hPa | 0.76 mm | - | 393 W/m² | - |
| 1777899532 | 27.22° C | 33% | 1012.5 hPa | 0.76 mm | - | 498 W/m² | - |
| 1777899348 | 26.67° C | 35% | 1012.5 hPa | 0.76 mm | - | 447 W/m² | - |
| 1777899165 | 26.67° C | 36% | 1012.7 hPa | 0.76 mm | - | 554 W/m² | - |
| 1777898981 | 26.67° C | 35% | 1012.8 hPa | 0.76 mm | - | 485 W/m² | - |
| 1777898798 | 26.67° C | 35% | 1012.9 hPa | 0.76 mm | - | 495 W/m² | - |
| 1777898614 | 26.67° C | 34% | 1012.7 hPa | 0.76 mm | - | 418 W/m² | - |
| 1777898431 | 26.67° C | 33% | 1012.8 hPa | 0.76 mm | - | 382 W/m² | - |
| 1777898248 | 26.67° C | 34% | 1012.8 hPa | 0.76 mm | - | 356 W/m² | - |
| 1777898064 | 26.67° C | 34% | 1012.8 hPa | 0.76 mm | - | 419 W/m² | - |
| 1777897881 | 26.67° C | 33% | 1012.8 hPa | 0.76 mm | - | 489 W/m² | - |
| 1777897698 | 26.11° C | 35% | 1012.9 hPa | 0.76 mm | - | 546 W/m² | - |
| 1777897514 | 25.56° C | 35% | 1012.9 hPa | 0.76 mm | - | 348 W/m² | - |
| 1777897331 | 26.11° C | 35% | 1013.1 hPa | 0.76 mm | - | 493 W/m² | - |
| 1777897148 | 26.67° C | 35% | 1012.9 hPa | 0.76 mm | - | 512 W/m² | - |
| 1777896964 | 26.67° C | 34% | 1013.1 hPa | 0.76 mm | - | 540 W/m² | - |
| 1777896781 | 27.22° C | 34% | 1013.1 hPa | 0.76 mm | - | 572 W/m² | - |
| 1777896598 | 27.22° C | 36% | 1013.1 hPa | 0.76 mm | - | 589 W/m² | - |
| 1777896414 | 27.22° C | 35% | 1013.3 hPa | 0.76 mm | - | 587 W/m² | - |
* Rain latest hour (hover to see other rain measurements)
** Current wind speed in m/s (hover to see current wind gust speed)